Wetbulb
70.90 70.47 71.04 68.25 62.35 62.50 57.20 58.85 63.18 61.93 62.90 65.82 66.60 65.22 63.89 66.12 64.54 59.13 71.69 72.07 72.57 73.68 75.32 75.25 76.27 76.16 75.55 75.23 75.01 74.39 74.14 74.04 74.04 74.04 73.86 73.63 73.06 72.66 72.56 72.51 72.84 73.05 73.17 73.15 73.21 73.29 73.40 73.50 73.41
70.23 66.96 67.38 64.37 59.72 54.33 51.75 61.11 61.59 62.59 65.01 66.46 66.40 65.49 64.93 65.10 69.40 69.54 69.62 72.02 73.14 73.50 75.80 75.35 75.37 75.44 75.06 74.66 74.06 74.29 74.34 73.94 73.43 72.73 72.48 72.28 72.54 72.91 73.22 73.64 73.86 73.77 73.82 73.88 74.01 74.11 74.03 74.02 73.90
69.13 65.63 62.32 59.80 57.74 55.53 52.68 61.98 63.41 63.57 65.56 65.12 64.89 67.33 66.40 65.83 69.57 69.35 71.83 72.58 73.19 73.59 74.76 76.02 75.43 74.84 74.27 74.64 74.48 73.97 73.63 73.22 73.29 73.63 73.68 73.74 74.22 74.33 74.22 74.19 74.20 74.33 74.05 73.90 73.37 73.01 72.96 72.92 73.00
64.15 63.40 62.50 56.84 55.67 59.12 59.64 63.25 64.45 62.55 64.54 66.00 65.90 64.63 68.76 72.50 70.70 71.80 72.31 72.45 72.83 73.11 74.74 74.89 74.62 74.89 74.70 74.18 73.72 74.38 74.55 74.50 74.51 74.48 74.28 73.78 73.66 73.83 74.01 73.86 73.44 73.34 73.46 73.48 73.91 72.89 71.99 72.87 73.44
63.66 61.54 56.84 55.79 55.90 59.43 62.23 64.71 64.05 61.92 62.71 63.95 64.47 64.05 66.52 71.13 73.76 72.74 72.14 71.65 71.55 73.01 73.52 73.48 75.23 74.52 74.18 74.00 74.03 73.66 73.29 72.94 72.37 72.45 72.02 71.88 72.20 71.68 71.41 70.94 70.86 70.85 70.92 71.04 70.94 70.86 70.46 69.92 71.10
58.25 59.40 54.49 53.32 55.41 58.51 61.26 64.37 63.95 62.80 63.52 64.00 64.71 65.71 66.86 71.28 72.44 72.52 71.11 70.87 72.12 72.20 73.68 74.28 74.09 74.50 74.28 73.63 72.97 72.08 71.14 70.40 69.81 69.71 69.71 69.86 70.15 69.41 69.27 69.10 69.10 68.65 68.59 68.89 68.95 68.93 68.73 68.55 68.43
56.64 56.64 54.35 54.89 54.45 57.80 59.43 64.67 64.17 63.20 62.74 64.00 65.86 64.60 67.19 68.19 70.55 70.35 70.21 71.21 71.66 72.04 72.43 72.62 73.96 74.41 73.81 72.57 71.58 70.38 68.93 67.82 67.01 66.90 67.27 67.74 68.04 68.05 67.83 67.40 67.12 67.37 67.05 67.21 67.17 67.11 67.15 67.23 67.37
58.23 57.21 54.47 55.54 54.88 55.20 61.54 63.47 65.73 63.93 63.11 68.03 66.57 63.49 64.83 68.09 69.42 69.50 70.23 70.78 70.72 71.41 71.76 72.43 72.76 73.19 72.58 72.68 69.44 68.27 67.15 66.34 65.67 65.02 64.08 63.55 66.81 67.56 66.84 67.13 64.84 64.88 65.11 65.45 65.62 65.76 65.90 66.27 67.00
59.02 53.25 52.73 54.73 54.45 56.71 61.74 62.35 65.65 66.19 64.72 66.37 66.69 66.01 69.81 68.94 68.76 68.40 68.97 69.12 69.71 70.67 72.25 73.19 73.71 73.51 72.61 72.68 70.24 68.35 67.50 66.78 67.08 66.85 64.66 67.88 65.51 64.94 65.44 63.13 62.68 63.11 63.62 64.39 64.02 64.15 64.97 65.68 67.34
55.28 53.79 54.29 58.23 57.77 57.94 60.53 60.29 64.43 64.05 64.04 65.11 66.16 69.58 69.89 68.11 67.47 67.20 67.40 67.62 68.93 70.21 72.04 73.04 73.28 74.22 72.87 72.36 72.72 71.89 70.44 69.10 67.57 66.41 66.39 65.57 65.99 65.37 64.06 65.79 62.61 64.23 62.77 66.25 64.17 65.14 66.89 67.35 64.41
55.74 53.42 57.17 57.84 58.79 59.39 59.12 58.70 65.62 63.92 62.35 65.61 65.44 68.17 68.00 66.72 67.08 67.28 67.85 68.38 69.44 71.08 72.10 73.51 74.41 75.42 72.86 71.92 73.26 71.81 70.41 69.18 67.08 65.93 65.92 66.26 65.19 65.01 64.19 63.73 63.61 63.99 66.34 63.75 64.63 64.33 63.82 64.07 63.79
52.96 56.15 56.91 58.08 59.04 58.47 58.79 59.87 60.17 64.19 64.49 66.94 68.62 70.06 68.56 66.53 66.89 67.37 68.13 69.16 70.42 71.49 72.34 74.31 73.96 74.18 74.11 72.55 71.86 71.40 69.00 68.04 65.91 65.16 65.37 64.78 63.78 63.87 63.65 63.43 63.71 63.93 63.54 63.60 63.42 63.18 64.06 63.48 63.22
53.20 54.89 56.96 57.90 56.87 58.09 59.91 58.95 58.08 62.42 67.23 68.14 69.13 70.23 68.78 67.44 67.98 68.69 69.64 70.65 71.63 71.43 72.38 73.65 74.25 73.92 73.15 71.35 69.70 69.95 68.96 66.65 65.40 64.87 64.76 64.10 63.39 63.20 63.57 63.71 63.28 63.26 63.42 62.81 62.85 63.10 62.50 62.58 63.46
54.10 54.36 55.53 55.92 56.53 56.76 58.21 58.91 58.13 60.16 68.34 67.01 68.11 69.09 69.47 68.16 68.26 69.93 70.42 70.91 71.59 72.28 72.68 73.48 73.06 73.70 71.97 70.23 69.90 68.44 67.40 66.12 65.19 64.62 64.16 63.99 63.32 63.65 63.22 63.02 62.28 62.41 62.39 62.07 62.27 61.86 62.02 62.40 62.89
53.92 51.44 53.74 54.01 55.02 55.17 57.61 56.32 56.66 60.70 66.57 67.19 67.34 69.02 69.49 69.00 68.87 69.66 71.45 71.54 72.42 72.63 72.80 72.72 71.83 70.77 70.06 69.95 68.54 68.02 66.26 65.19 64.27 63.95 64.18 63.30 63.67 64.15 63.95 62.01 61.78 61.54 61.99 62.84 62.80 62.15 62.77 62.05 62.23
51.16 52.20 49.15 53.62 54.62 55.39 56.55 52.52 58.16 61.52 63.13 66.65 67.29 68.02 69.10 69.57 69.06 70.47 71.97 72.65 73.16 72.10 70.14 69.70 69.83 69.26 69.09 68.37 67.84 66.38 65.30 64.52 64.03 63.81 62.87 63.15 63.14 63.52 63.17 61.63 60.86 61.36 61.08 61.17 61.06 61.43 60.68 60.60 60.91
50.75 47.27 48.77 50.72 55.17 55.33 55.46 53.02 56.17 60.11 61.73 64.93 67.26 67.87 68.38 69.65 70.31 71.23 72.28 72.23 69.87 69.23 69.24 67.06 67.30 66.30 67.67 67.61 66.92 66.04 65.34 64.55 64.29 63.10 62.18 62.84 62.71 62.71 62.54 60.80 60.29 60.89 60.21 60.86 60.39 60.62 60.76 60.27 59.80
47.97 47.74 48.68 48.78 53.42 54.81 53.36 53.89 55.79 59.83 61.52 62.83 66.05 67.72 68.48 69.21 70.37 72.01 71.12 69.30 69.19 69.29 67.56 66.46 66.81 66.92 67.36 66.56 65.66 64.11 63.61 63.63 63.56 61.92 62.10 62.50 62.30 61.91 62.10 60.18 59.78 59.76 59.42 59.51 60.06 60.15 60.46 60.17 60.15
50.63 49.86 48.84 51.10 54.03 54.82 52.89 53.97 54.62 61.39 62.01 61.37 64.71 66.73 68.34 69.42 70.83 71.21 69.01 69.52 68.39 67.65 66.94 66.22 65.55 66.46 66.14 64.43 62.69 62.39 62.15 62.45 61.43 61.81 61.93 62.00 61.57 61.37 61.40 58.96 58.75 59.58 58.17 58.74 59.46 59.64 59.00 57.77 59.64
49.40 48.35 48.69 51.36 52.79 54.56 54.68 53.91 56.60 57.70 60.85 61.96 62.93 65.11 67.51 69.27 69.78 69.03 68.64 68.60 68.85 67.91 66.23 66.07 66.00 65.80 65.26 64.13 64.74 64.43 62.95 61.63 61.02 61.53 61.43 61.18 60.48 60.69 59.81 59.50 58.33 59.20 57.71 57.92 57.87 58.00 56.90 57.30 58.01
49.30 48.51 49.01 49.14 51.81 53.79 53.74 53.11 55.38 57.68 60.28 62.00 63.49 64.78 66.40 68.59 69.11 68.34 67.36 67.77 67.70 65.64 65.55 65.75 66.06 65.30 65.25 65.78 63.59 62.76 61.67 60.57 60.41 60.53 59.86 59.51 59.21 59.72 59.61 59.05 58.98 58.73 59.02 56.16 57.21 57.43 56.73 54.27 56.02
48.11 51.50 50.05 49.21 49.13 46.44 52.73 45.46 52.35 54.69 55.59 58.20 60.26 63.59 65.05 67.63 69.61 69.41 68.54 67.00 66.55 66.02 65.84 66.28 65.77 65.14 64.71 64.89 63.26 63.04 60.81 59.44 60.12 60.19 59.64 58.96 58.95 58.61 58.74 59.07 58.69 58.69 57.29 57.43 56.74 56.51 57.22 56.14 52.63
49.78 52.56 51.32 50.62 48.96 48.89 49.20 48.22 51.23 54.50 54.01 56.45 58.72 60.70 65.10 67.38 69.41 68.77 67.86 67.67 67.22 65.85 64.78 65.40 64.67 64.37 64.50 63.65 64.02 61.79 61.50 60.48 60.00 59.59 59.83 59.29 58.82 58.14 57.68 58.49 58.77 58.45 57.41 57.65 57.31 56.73 56.39 54.77 53.13
53.62 51.49 51.92 51.87 50.10 44.89 48.55 47.65 48.46 51.73 54.67 57.23 58.42 59.67 64.06 67.11 69.52 69.80 67.93 67.30 66.70 65.82 64.15 63.17 63.06 63.31 63.57 63.05 62.81 62.60 61.43 60.74 59.24 59.07 57.95 57.73 57.65 57.87 58.64 58.40 58.86 58.54 58.74 57.29 56.97 57.45 56.52 55.27 53.74
52.66 50.65 45.05 44.32 44.66 43.49 50.16 48.06 49.74 53.68 55.89 57.67 57.22 58.34 63.67 67.37 68.94 68.90 65.06 64.78 65.42 64.23 63.98 62.97 62.52 61.86 62.45 62.05 61.45 61.51 61.36 61.00 60.25 59.21 57.80 57.44 56.90 57.24 57.96 58.39 58.24 57.50 58.52 57.60 57.57 57.09 56.64 55.23 53.36
51.97 51.35 46.16 41.25 41.87 44.04 50.05 46.19 49.75 54.91 56.53 57.61 58.15 58.71 62.09 66.83 68.48 68.44 64.86 66.14 64.28 64.92 64.31 63.20 61.79 61.51 61.52 61.34 61.22 61.51 61.47 60.05 59.80 60.08 58.16 57.53 57.83 57.74 59.00 58.08 58.35 57.20 56.68 57.74 57.24 55.75 55.29 55.68 53.67
50.94 48.80 52.70 48.17 49.09 45.91 47.99 50.69 53.07 55.14 55.59 56.17 56.61 58.27 60.37 65.15 68.13 67.85 65.42 64.87 64.65 64.60 64.62 63.33 62.44 61.49 61.26 61.03 61.12 61.06 60.90 60.86 60.01 59.82 59.25 57.97 58.88 57.79 58.25 57.45 57.26 56.29 55.33 56.76 57.34 54.71 54.66 54.85 54.56
52.79 54.08 48.35 48.98 41.75 40.47 45.11 46.85 47.35 52.95 53.84 55.94 57.16 58.20 60.98 63.95 68.75 67.77 67.00 65.37 65.07 65.38 65.47 63.94 63.04 61.51 61.11 61.07 60.87 60.39 60.44 60.29 60.11 59.17 58.06 57.90 58.38 58.05 57.49 56.55 56.45 55.83 54.36 56.25 56.93 56.22 55.21 55.11 54.43
52.23 50.48 50.81 51.89 49.18 43.50 42.30 45.78 53.69 53.45 55.68 56.04 56.88 58.56 60.05 64.37 67.86 67.36 67.05 65.66 65.13 65.37 65.32 63.34 62.42 61.54 60.85 60.67 60.60 60.26 59.90 59.75 59.23 58.24 57.75 57.22 57.70 57.83 57.11 56.28 55.58 54.99 54.05 55.80 56.57 55.82 54.67 53.96 54.53
52.35 50.25 50.97 47.31 46.02 48.29 48.39 48.18 55.46 55.79 56.74 57.16 57.54 60.11 62.29 56.12 60.34 67.08 67.41 65.25 64.18 64.72 64.84 62.87 62.42 61.47 61.14 60.90 60.42 59.90 59.85 59.34 58.33 57.55 57.49 57.90 57.24 57.74 56.95 56.12 55.27 54.25 53.66 55.35 55.85 55.11 54.64 54.08 53.79
MSLP
1009.09 1008.33 1007.03 1005.31 1004.35 1001.18 1001.26 1000.28 1001.58 1002.51 1003.04 1004.34 1004.64 1004.32 1004.59 1005.45 1005.65 1008.71 1009.93 1010.11 1010.38 1011.56 1013.05 1013.70 1014.42 1014.60 1014.91 1015.15 1015.39 1015.56 1015.64 1015.68 1015.73 1015.77 1015.73 1015.65 1015.59 1015.49 1015.48 1015.40 1015.26 1015.10 1015.06 1015.02 1015.00 1014.97 1014.85 1014.75 1014.67
1007.06 1006.52 1005.90 1004.06 1002.13 1000.56 1003.37 1001.65 1001.39 1002.68 1004.07 1004.76 1005.01 1004.91 1005.07 1006.46 1007.78 1008.97 1009.65 1010.34 1010.88 1011.99 1012.37 1013.70 1014.73 1014.96 1015.19 1015.40 1015.65 1015.82 1015.88 1015.98 1015.95 1015.99 1015.91 1015.81 1015.78 1015.76 1015.67 1015.57 1015.45 1015.34 1015.20 1015.07 1015.04 1014.87 1014.87 1014.78 1014.69
1007.81 1006.31 1004.89 1002.43 1000.70 1000.18 1003.07 1000.42 1001.85 1003.59 1004.53 1004.69 1004.96 1005.09 1005.56 1008.07 1008.83 1009.54 1010.00 1010.64 1011.09 1011.73 1012.78 1014.38 1014.90 1015.20 1015.47 1015.66 1015.81 1015.99 1016.01 1016.12 1016.09 1016.11 1016.06 1016.05 1015.96 1015.95 1015.85 1015.74 1015.61 1015.49 1015.27 1015.28 1015.12 1015.07 1014.97 1014.74 1014.57
1006.27 1005.07 1004.00 1001.82 999.50 1000.03 1000.02 1000.50 1002.24 1003.36 1004.54 1004.70 1004.45 1006.04 1007.69 1008.37 1009.22 1009.73 1010.39 1010.81 1011.42 1011.78 1012.91 1014.81 1015.10 1015.45 1015.65 1015.88 1016.07 1016.10 1016.14 1016.21 1016.26 1016.26 1016.23 1016.27 1016.26 1016.23 1016.02 1015.92 1015.93 1015.83 1015.63 1015.36 1015.22 1015.18 1015.14 1014.91 1014.70
1005.97 1004.12 1001.96 1000.31 999.14 998.96 1000.13 1001.64 1002.27 1003.26 1004.23 1004.34 1004.56 1005.90 1007.84 1008.79 1009.31 1010.13 1010.44 1010.75 1010.98 1011.54 1013.52 1014.71 1015.46 1015.70 1015.98 1016.14 1016.33 1016.48 1016.57 1016.64 1016.78 1016.71 1016.66 1016.72 1016.57 1016.56 1016.47 1016.39 1016.27 1016.11 1015.94 1015.84 1015.67 1015.48 1015.34 1015.20 1014.91
1004.56 1003.12 1001.24 999.36 998.69 999.63 1000.39 1001.52 1002.26 1002.86 1003.41 1004.62 1005.06 1006.32 1007.96 1009.27 1009.57 1010.05 1010.21 1010.26 1010.52 1011.54 1012.98 1014.62 1015.64 1015.88 1016.16 1016.45 1016.59 1016.82 1017.03 1017.06 1017.10 1017.16 1017.09 1016.94 1016.90 1016.83 1016.76 1016.65 1016.62 1016.42 1016.20 1015.97 1015.79 1015.65 1015.45 1015.25 1015.06
1004.06 1001.99 1000.53 999.07 999.44 1000.26 999.99 1001.30 1001.91 1002.61 1003.54 1003.69 1004.59 1005.48 1008.34 1009.00 1009.40 1009.69 1009.99 1010.30 1010.78 1011.45 1012.88 1014.10 1015.11 1015.98 1016.37 1016.86 1016.97 1017.22 1017.30 1017.35 1017.33 1017.23 1017.10 1017.00 1016.88 1016.86 1016.84 1016.81 1016.69 1016.51 1016.42 1016.20 1015.90 1015.67 1015.46 1015.17 1014.97
1003.72 1002.34 1000.52 999.28 998.66 998.78 1000.57 1001.42 1001.89 1002.72 1002.91 1003.99 1004.07 1004.82 1007.58 1008.47 1009.16 1009.64 1009.89 1010.30 1010.88 1011.46 1012.27 1013.13 1014.55 1015.17 1015.75 1016.55 1017.28 1017.36 1017.45 1017.39 1017.44 1017.20 1017.04 1016.84 1016.69 1016.54 1016.49 1016.64 1016.93 1016.75 1016.59 1016.27 1016.07 1015.79 1015.49 1015.10 1014.65
1003.71 1002.54 1000.38 999.06 998.99 998.68 1000.54 1001.15 1002.24 1002.98 1003.35 1004.08 1004.57 1004.98 1006.84 1008.40 1009.05 1009.31 1009.68 1010.13 1010.66 1011.05 1011.44 1011.88 1012.96 1014.90 1015.53 1015.70 1016.93 1017.14 1017.25 1017.11 1017.01 1016.88 1016.86 1016.27 1016.28 1016.35 1015.79 1016.71 1016.76 1016.58 1016.41 1016.18 1015.89 1015.61 1015.15 1014.64 1014.10
1003.44 1002.00 1000.20 998.96 998.85 999.01 999.94 1001.01 1001.93 1003.17 1003.42 1003.99 1005.20 1005.90 1007.48 1008.30 1008.68 1008.95 1009.34 1009.90 1010.45 1010.98 1011.20 1012.08 1014.19 1014.63 1014.84 1014.84 1015.78 1016.16 1016.49 1016.93 1017.14 1017.11 1016.89 1016.54 1016.67 1016.75 1016.36 1016.13 1016.18 1016.12 1016.14 1015.51 1015.57 1015.11 1014.67 1014.24 1013.51
1002.78 1001.71 1000.11 999.55 999.85 999.76 1000.03 1001.28 1001.62 1002.74 1002.59 1003.32 1004.78 1006.21 1007.49 1008.10 1008.48 1008.77 1009.32 1009.75 1010.57 1011.18 1011.61 1012.62 1014.60 1015.14 1014.91 1015.29 1015.31 1015.54 1016.13 1016.50 1016.97 1017.43 1017.09 1017.02 1016.74 1016.87 1016.40 1016.06 1015.89 1015.89 1015.53 1015.17 1014.97 1014.52 1014.43 1014.67 1014.19
1002.39 1001.68 1001.02 1000.00 1000.05 1000.54 1000.72 1001.10 1001.82 1002.27 1001.67 1001.80 1004.32 1006.14 1007.17 1007.73 1008.19 1008.77 1009.40 1009.85 1010.74 1011.57 1012.41 1013.35 1014.44 1015.02 1015.18 1015.45 1015.39 1015.98 1016.29 1016.64 1016.91 1017.43 1017.72 1017.28 1016.93 1017.17 1016.90 1016.56 1016.18 1015.98 1015.77 1015.71 1015.39 1014.90 1015.12 1014.71 1014.24
1001.95 1001.57 1001.01 1000.70 1000.79 1001.23 1001.09 1001.33 1001.52 1002.00 1002.24 1003.24 1004.01 1005.99 1006.81 1007.32 1007.96 1008.67 1009.60 1010.36 1011.15 1012.03 1013.09 1013.97 1014.69 1015.19 1015.53 1016.16 1016.44 1016.44 1016.50 1016.95 1017.40 1017.57 1018.05 1017.97 1017.46 1017.74 1017.07 1016.86 1016.44 1016.29 1016.19 1016.00 1015.63 1015.32 1015.11 1014.50 1013.84
1001.78 1001.87 1001.01 1000.90 1000.81 1001.31 1001.51 1001.50 1001.68 1001.64 1002.38 1003.31 1003.97 1005.57 1006.37 1006.90 1007.60 1008.49 1009.58 1010.47 1011.23 1012.16 1013.20 1013.83 1014.70 1015.21 1015.78 1016.04 1016.32 1016.76 1017.16 1017.35 1017.54 1018.08 1018.38 1018.34 1018.07 1018.15 1017.06 1016.76 1016.65 1016.58 1016.45 1016.36 1015.95 1015.73 1015.10 1014.54 1013.94
1001.94 1001.79 1001.11 1001.10 1000.93 1001.04 1001.54 1001.40 1001.11 1001.34 1001.82 1003.33 1004.05 1005.15 1005.78 1006.63 1007.41 1008.29 1009.49 1010.63 1011.47 1012.51 1013.51 1014.29 1015.12 1015.82 1016.29 1016.38 1016.48 1016.53 1017.02 1017.22 1017.54 1017.92 1018.49 1018.63 1018.59 1018.13 1017.53 1017.01 1017.10 1017.04 1016.68 1016.45 1015.97 1015.67 1014.95 1014.77 1014.50
1002.16 1001.74 1000.59 1000.17 1000.59 1000.96 1001.63 1000.48 1000.63 1001.27 1001.76 1002.85 1004.01 1004.73 1005.38 1006.29 1007.22 1008.34 1009.58 1010.88 1012.01 1013.26 1014.58 1015.38 1015.80 1016.19 1016.48 1016.76 1016.12 1016.65 1017.48 1017.50 1017.81 1017.98 1018.10 1018.65 1018.61 1018.35 1017.62 1017.36 1017.71 1017.49 1016.79 1016.43 1016.15 1015.88 1015.66 1015.42 1015.13
1001.50 1000.44 999.97 999.35 999.74 1000.76 1001.18 1000.44 999.83 999.90 1001.35 1002.57 1003.49 1004.28 1005.05 1005.93 1007.24 1008.60 1010.11 1011.60 1013.37 1014.42 1015.28 1015.87 1016.18 1016.71 1016.78 1016.88 1016.22 1017.39 1018.18 1017.87 1018.04 1018.03 1018.21 1018.79 1018.65 1018.47 1017.92 1018.19 1018.14 1017.54 1016.96 1016.86 1016.72 1016.41 1016.33 1015.69 1015.44
999.85 999.89 999.63 998.98 999.34 1000.43 1000.19 1000.35 999.71 1000.36 1001.24 1002.09 1002.73 1003.90 1004.81 1005.88 1007.48 1008.98 1010.94 1012.70 1013.83 1014.44 1015.42 1016.01 1016.27 1016.61 1016.83 1016.41 1016.73 1017.33 1017.89 1018.04 1018.10 1018.22 1018.52 1018.76 1018.67 1018.71 1018.26 1018.21 1018.37 1017.83 1017.73 1017.55 1017.49 1017.13 1016.86 1016.42 1015.90
1000.98 1000.22 999.41 999.13 999.67 1000.29 1000.27 999.93 1000.04 1000.24 1001.42 1001.66 1002.18 1003.32 1004.53 1006.28 1008.64 1009.56 1011.27 1012.69 1013.58 1014.69 1015.30 1015.88 1016.38 1016.78 1016.37 1016.17 1016.43 1016.95 1017.27 1017.94 1018.18 1018.57 1018.87 1018.90 1018.96 1018.84 1018.78 1018.32 1018.45 1017.98 1018.57 1018.43 1017.99 1017.38 1016.74 1016.60 1016.56
1001.67 1001.01 1000.41 999.87 1000.36 1000.79 1000.00 999.76 999.49 999.59 1000.66 1001.33 1001.67 1002.42 1003.72 1005.89 1007.57 1009.51 1011.12 1012.08 1013.08 1013.98 1014.90 1015.58 1016.09 1016.42 1016.14 1016.18 1016.35 1016.75 1017.35 1017.75 1017.99 1018.73 1019.14 1019.20 1019.18 1019.17 1019.17 1019.02 1019.00 1018.98 1018.40 1018.87 1018.58 1018.24 1017.51 1016.61 1017.09
1001.67 1001.10 1000.50 1000.24 1000.14 1000.78 1000.24 999.43 999.30 999.41 999.82 1000.68 1001.33 1001.85 1002.75 1004.10 1006.08 1008.63 1010.65 1011.54 1012.69 1013.83 1014.40 1015.05 1015.58 1015.66 1016.02 1016.29 1017.13 1017.58 1018.00 1018.33 1018.00 1018.52 1018.75 1019.35 1019.36 1019.39 1019.48 1019.58 1019.46 1019.06 1018.72 1018.91 1019.13 1018.74 1018.43 1017.46 1016.86
1001.15 1000.77 1001.21 1000.97 1000.67 1000.00 999.93 998.94 998.49 998.79 999.03 999.62 1000.33 1001.10 1001.80 1002.91 1005.01 1007.77 1009.49 1011.05 1012.25 1013.23 1013.89 1014.56 1015.36 1015.78 1016.00 1016.76 1016.91 1017.12 1016.80 1016.83 1017.39 1018.01 1018.99 1019.46 1019.58 1019.59 1019.73 1019.78 1019.72 1019.57 1019.34 1019.54 1019.22 1019.29 1018.75 1018.60 1017.74
1001.10 1001.53 1001.59 1001.22 1000.81 1000.42 999.50 999.21 997.86 997.25 997.75 998.28 998.91 999.58 1000.88 1001.96 1003.88 1006.80 1008.91 1010.31 1011.81 1012.82 1013.71 1013.77 1015.04 1015.77 1016.11 1016.66 1016.65 1017.12 1016.77 1017.58 1017.76 1018.30 1019.13 1019.64 1019.84 1019.74 1019.75 1019.88 1019.90 1019.81 1019.45 1019.80 1019.83 1019.82 1019.64 1019.19 1018.81
1001.87 1002.11 1001.80 1001.43 1000.73 999.78 999.33 998.67 997.27 996.65 996.74 997.32 998.00 998.13 999.28 1001.01 1002.89 1005.59 1008.49 1009.85 1011.31 1012.65 1013.36 1014.02 1014.60 1015.47 1016.21 1016.49 1016.82 1016.86 1017.16 1017.32 1017.72 1018.28 1018.75 1018.77 1019.25 1019.62 1019.82 1019.74 1019.84 1019.94 1019.72 1019.77 1019.93 1020.07 1020.13 1020.03 1019.91
1001.87 1001.83 1000.86 1000.09 999.33 998.36 997.89 997.65 997.06 996.34 996.44 996.85 997.03 996.98 996.88 999.20 1001.97 1005.10 1007.94 1009.43 1010.91 1012.22 1013.15 1013.93 1014.43 1015.09 1015.92 1016.27 1016.80 1017.13 1017.51 1017.76 1018.05 1018.56 1018.32 1018.55 1018.77 1019.05 1019.98 1019.97 1020.10 1019.75 1019.79 1019.93 1020.01 1020.21 1020.24 1020.35 1020.28
1000.87 1001.24 1000.47 999.35 998.45 997.78 997.02 997.09 996.45 996.63 996.85 996.71 996.89 997.23 997.62 998.82 1001.14 1004.33 1007.39 1008.66 1010.23 1011.22 1012.18 1013.11 1013.88 1014.73 1015.52 1016.04 1016.64 1017.16 1017.63 1017.74 1017.98 1018.46 1018.35 1018.54 1018.60 1019.27 1019.92 1019.96 1019.87 1019.97 1019.89 1019.77 1019.98 1019.71 1019.98 1020.48 1020.54
1000.99 1000.72 1000.82 1000.57 999.86 999.03 997.65 996.90 996.44 996.41 996.67 996.89 997.02 997.25 997.76 998.81 1000.53 1003.92 1006.99 1008.38 1009.31 1010.53 1011.39 1012.68 1013.24 1014.27 1015.16 1015.76 1016.57 1017.14 1017.49 1017.59 1017.66 1018.39 1018.83 1019.10 1019.10 1019.20 1019.67 1019.77 1019.95 1019.97 1019.91 1019.83 1020.03 1020.09 1020.14 1020.26 1020.46
1001.64 1001.21 1001.27 1000.87 1000.60 999.68 998.45 997.62 996.35 996.24 996.39 996.57 996.67 997.11 997.17 997.89 999.83 1003.82 1005.94 1007.79 1008.82 1010.00 1010.61 1011.99 1012.82 1013.75 1014.64 1015.38 1016.29 1016.94 1017.41 1017.79 1018.21 1018.76 1018.90 1018.97 1019.15 1019.27 1019.74 1019.94 1019.87 1019.98 1020.01 1019.85 1020.14 1020.18 1020.50 1020.34 1020.17
1001.94 1001.82 1001.70 1002.42 1001.24 1000.06 999.12 997.90 997.59 998.66 997.93 997.38 997.40 997.54 998.19 997.78 999.46 1003.07 1004.53 1007.10 1008.58 1009.46 1010.05 1011.43 1012.38 1013.34 1014.16 1015.00 1015.80 1016.58 1017.22 1017.80 1018.31 1018.61 1018.88 1019.10 1019.43 1019.57 1019.61 1019.81 1019.96 1019.91 1019.93 1019.99 1020.14 1020.23 1020.25 1020.26 1020.17
1003.29 1002.95 1002.52 1002.45 1002.05 1001.17 1000.96 998.58 997.53 998.50 998.19 998.02 998.30 998.42 999.51 1000.84 1002.52 1002.47 1003.59 1006.33 1008.07 1008.75 1009.39 1010.80 1011.76 1012.74 1013.61 1014.43 1015.39 1016.32 1017.03 1017.61 1018.05 1018.35 1018.79 1019.04 1019.32 1019.49 1019.50 1019.71 1019.80 1019.80 1019.96 1020.18 1020.19 1020.13 1020.00 1020.15 1020.10
Wind_Speed
10 13 13 9 10 12 6 17 9 7 8 6 6 8 14 13 16 6 10 8 14 17 16 14 10 11 10 10 9 9 8 8 8 7 7 7 7 7 6 6 7 7 6 6 6 7 7 7 7
13 9 9 11 15 8 4 10 13 14 10 8 5 4 6 16 14 16 13 12 15 14 14 14 10 11 12 11 10 8 8 7 7 6 7 7 7 7 6 6 7 7 7 7 7 6 6 7 7
15 11 11 15 16 6 10 14 18 13 10 3 6 7 7 9 12 6 16 15 14 15 14 14 14 13 12 11 11 9 8 8 8 7 7 7 7 7 6 6 7 7 8 8 7 8 8 8 7
8 10 10 12 21 16 8 13 12 12 7 4 8 13 11 15 10 15 15 15 14 13 18 14 14 12 13 12 11 10 10 11 12 13 13 12 11 12 12 13 13 12 12 11 11 10 10 10 8
9 9 13 16 21 11 11 7 6 8 4 7 1 11 13 9 18 16 15 15 15 18 15 15 13 14 13 13 13 14 14 14 13 13 12 12 12 13 13 13 12 12 12 12 12 11 11 11 10
10 12 14 15 11 8 5 6 7 7 5 7 12 14 13 12 15 15 14 14 13 16 18 15 14 14 14 14 13 14 13 13 12 11 11 11 11 11 11 11 12 11 11 10 10 11 11 11 10
15 13 15 18 21 19 7 5 10 7 5 6 12 13 12 15 14 14 13 14 12 15 16 15 15 15 16 14 14 14 13 13 12 11 8 7 8 8 10 12 12 12 12 11 10 10 10 11 11
13 14 20 12 13 6 11 6 6 6 8 9 6 9 15 16 16 15 14 13 14 14 16 17 14 14 12 12 13 13 12 12 10 10 5 1 5 7 11 10 12 10 11 9 9 10 12 13 14
10 14 14 14 12 4 12 9 7 3 5 5 7 2 22 19 17 16 14 14 12 12 13 16 16 14 10 14 11 13 12 10 9 6 2 1 7 9 8 6 4 6 8 9 8 9 12 15 19
15 13 19 13 2 10 14 7 13 7 9 9 10 19 20 20 18 16 15 13 14 12 11 13 16 12 9 9 8 6 6 8 8 8 6 8 6 7 7 2 4 6 4 13 9 9 15 14 10
18 18 17 8 6 10 6 6 11 10 14 13 13 19 19 19 16 16 15 14 14 13 9 15 12 3 7 8 2 3 4 4 5 8 8 7 6 7 7 6 7 7 7 8 9 9 8 11 9
19 18 21 17 3 10 8 3 8 10 5 16 16 19 19 19 17 15 14 13 14 12 8 16 8 7 7 2 4 3 4 4 4 7 10 7 5 7 7 6 7 7 7 9 9 7 8 10 10
21 19 16 18 5 10 12 7 10 13 5 4 20 19 19 18 17 16 15 14 13 12 11 13 9 8 7 6 3 3 3 5 5 6 8 7 7 7 6 6 6 6 7 8 8 9 8 9 9
12 19 19 14 13 10 11 12 9 11 15 9 18 18 18 18 18 17 16 15 14 14 13 12 10 8 8 7 5 3 3 4 4 5 7 8 7 6 6 6 7 7 7 8 7 8 7 9 8
16 14 16 12 13 14 10 15 12 13 18 13 15 17 18 18 18 17 15 14 13 12 12 11 11 10 8 9 6 3 3 3 4 4 6 6 6 6 8 6 7 7 6 7 7 8 8 7 8
14 15 16 19 16 8 10 17 18 16 13 16 17 16 15 18 18 16 14 13 11 9 9 8 7 9 8 6 7 5 4 3 3 3 5 6 6 6 5 7 7 8 7 6 7 7 6 7 9
13 15 19 20 17 13 15 18 19 22 16 16 16 15 16 16 16 14 12 11 12 11 11 10 9 9 8 7 9 6 4 2 2 3 5 5 6 6 5 7 7 8 6 7 7 7 7 5 5
9 16 15 8 15 11 17 16 15 4 11 15 16 16 15 15 14 15 14 12 11 12 10 10 6 9 8 7 7 5 4 3 2 4 5 5 5 6 7 7 6 8 8 8 8 6 7 5 7
11 14 12 9 2 4 14 15 18 16 12 15 17 16 16 14 12 11 14 14 14 13 12 12 12 11 8 7 7 5 4 3 4 5 4 5 6 6 7 6 7 5 8 8 9 9 5 6 7
12 13 13 9 4 12 15 16 16 15 14 14 15 16 17 18 19 15 16 16 15 14 13 13 12 11 7 5 3 2 2 3 4 6 5 5 5 6 7 7 6 8 6 9 9 9 9 4 6
13 14 12 13 8 11 15 13 14 13 11 14 15 16 18 20 19 21 17 18 15 15 15 14 12 13 8 8 6 4 4 5 6 7 6 5 5 6 5 6 6 5 7 7 8 9 9 9 5
13 14 10 12 13 13 20 13 18 20 18 17 17 18 17 18 19 21 21 18 16 16 14 14 12 12 10 9 8 7 4 4 6 3 7 5 5 5 6 5 5 6 7 8 8 8 8 9 7
7 3 7 10 12 15 16 10 15 9 13 13 17 20 19 18 20 23 20 20 17 15 11 14 13 11 11 9 7 7 5 6 5 6 6 6 4 4 5 5 4 4 6 6 7 8 9 7 8
13 6 13 13 13 14 18 18 14 13 16 13 14 17 18 18 20 20 21 17 17 15 14 13 14 12 12 10 8 7 7 6 6 6 6 6 7 6 2 3 4 4 3 5 6 6 8 8 7
13 11 11 13 13 13 17 18 15 5 5 10 10 13 20 19 20 20 22 19 18 18 17 14 15 14 13 11 10 9 8 7 7 7 5 4 4 5 5 3 4 3 3 4 3 4 4 6 6
12 12 12 15 12 12 8 7 11 11 10 10 7 11 9 16 19 22 22 21 21 20 19 18 17 16 14 13 11 10 10 7 6 7 5 5 2 3 5 3 2 2 3 2 3 5 5 5 4
13 11 13 13 15 13 12 10 6 12 11 12 13 14 13 13 18 23 22 19 19 20 20 17 18 16 15 14 11 10 10 8 6 6 4 3 1 6 6 4 1 2 3 1 2 6 3 2 2
12 12 8 10 14 16 15 11 10 9 8 5 12 12 12 18 22 20 20 19 17 20 19 19 18 17 16 15 12 10 9 8 7 7 7 5 4 1 4 3 1 1 2 1 3 6 4 0 3
6 13 7 10 12 12 12 8 15 5 12 9 12 16 13 14 25 20 18 19 19 20 19 19 18 18 16 15 13 12 10 9 9 8 7 6 5 5 5 4 2 1 1 2 2 2 2 3 2
9 16 17 10 14 8 14 14 11 5 12 8 11 11 12 20 26 16 19 20 18 21 20 20 18 18 17 15 14 13 11 10 9 8 8 7 7 5 5 3 3 0 0 3 4 5 4 5 5
Wind_Direction
200 215 235 254 245 243 339 92 85 124 124 57 45 329 31 29 32 91 121 126 108 107 119 132 134 127 118 111 97 93 96 94 91 86 83 72 66 61 52 42 36 31 18 8 359 351 347 343 339
242 243 245 270 252 246 96 304 69 64 93 109 117 129 80 62 66 119 128 118 104 125 132 121 119 120 112 105 109 110 101 93 87 80 74 72 63 53 51 46 36 26 18 7 352 350 341 334 326
255 256 270 241 250 279 231 105 93 98 113 186 114 21 36 85 84 101 116 124 123 120 110 108 115 109 116 123 104 102 99 93 81 72 69 67 62 52 46 42 30 22 18 5 5 0 351 343 335
234 224 238 260 261 14 34 79 97 119 95 256 109 90 80 132 117 126 131 125 123 143 107 113 114 128 113 105 104 91 95 84 71 67 65 59 53 48 44 43 36 31 26 22 23 18 9 357 330
239 265 259 239 263 84 67 57 129 100 126 143 267 97 98 94 111 134 136 144 153 112 120 125 125 110 110 106 94 85 77 72 68 68 66 62 59 54 50 45 39 33 27 19 15 11 5 359 359
238 239 255 251 230 87 118 160 134 174 126 101 108 123 99 125 137 145 151 148 131 132 120 132 115 115 109 100 95 90 83 79 73 68 67 65 61 56 52 44 34 27 21 17 11 4 357 351 345
252 245 254 272 67 256 121 169 166 144 164 140 141 112 125 157 145 145 150 134 138 121 125 136 133 121 105 102 98 93 87 78 72 65 61 70 79 69 54 51 30 17 8 4 360 352 342 331 319
253 267 275 259 280 99 90 190 146 171 107 87 192 138 156 138 148 149 144 143 133 140 142 144 130 148 135 127 107 102 95 90 83 70 31 259 170 146 100 11 29 5 358 348 345 336 325 308 292
247 264 256 250 238 147 121 179 171 175 121 192 81 110 135 148 152 155 149 147 147 147 147 142 130 129 136 130 132 133 130 140 145 121 328 298 30 15 344 80 20 346 336 312 309 312 299 294 280
240 239 252 279 237 260 123 234 145 177 194 158 131 109 135 152 161 155 154 149 143 136 157 119 106 120 181 120 142 110 89 62 42 32 33 12 20 6 315 317 209 269 269 279 253 265 266 272 327
225 251 257 279 285 285 95 189 137 213 178 168 161 138 152 160 164 159 152 159 144 157 118 111 109 160 36 82 144 82 58 36 81 38 18 35 359 4 360 355 346 352 356 358 341 331 356 339 333
235 242 263 286 132 261 251 239 176 216 302 146 150 148 160 166 166 158 158 146 143 139 147 110 131 147 121 130 29 92 73 54 32 63 10 18 3 359 359 7 347 356 355 356 348 349 342 330 318
230 250 232 256 286 258 253 226 264 188 160 246 143 158 169 174 169 158 159 151 148 146 148 127 157 133 122 100 101 41 53 48 35 35 37 14 357 357 7 8 358 3 1 353 344 358 342 326 337
224 239 258 257 231 231 252 232 227 235 143 203 153 172 175 178 176 161 166 164 166 153 161 152 154 139 127 117 113 116 61 128 62 55 28 16 352 360 343 14 4 8 10 349 348 347 334 6 352
252 268 233 243 238 245 228 248 216 241 168 177 169 182 175 184 181 171 174 169 177 162 155 151 142 136 152 133 126 101 113 98 64 59 69 26 10 352 329 25 11 7 359 348 358 350 19 358 19
235 235 244 216 218 208 218 241 205 222 206 179 186 186 185 186 182 169 174 167 133 135 129 132 143 138 145 147 130 102 87 71 64 38 58 21 19 7 25 20 21 347 358 4 10 1 16 15 40
208 245 217 263 169 229 204 250 251 197 180 203 188 201 192 182 175 162 163 147 115 133 153 152 142 156 151 157 101 92 129 89 63 47 55 40 36 20 4 30 23 345 6 21 17 8 358 20 3
241 206 252 230 180 203 233 233 254 152 181 215 192 202 189 187 177 163 142 139 162 156 143 150 170 145 152 125 125 128 132 136 78 53 62 20 51 36 346 63 21 23 25 34 0 20 359 335 353
309 311 289 195 28 244 231 247 240 169 215 214 205 198 189 181 199 183 161 171 160 160 162 158 157 167 160 144 159 156 160 129 112 92 70 62 34 42 16 39 26 31 38 22 11 344 64 19 358
255 257 255 272 138 252 243 232 226 215 197 220 221 205 197 188 189 187 175 183 175 165 162 169 162 165 163 153 118 83 145 81 91 88 79 62 57 34 70 20 54 359 74 33 19 6 343 48 32
239 257 253 255 166 242 266 261 237 225 196 209 227 226 211 193 193 163 182 183 169 175 173 172 170 156 173 129 130 142 111 162 159 158 121 68 64 72 67 70 33 52 26 46 25 2 25 340 29
260 209 241 274 254 252 203 251 215 220 222 214 221 224 227 201 191 167 178 181 183 181 172 165 167 164 156 173 166 183 216 176 82 113 77 98 74 85 90 75 65 37 57 26 36 28 358 352 19
280 57 256 262 250 251 251 241 282 298 203 218 218 219 217 215 187 172 192 181 185 174 175 158 157 166 155 179 177 184 207 127 159 112 140 69 103 106 100 88 71 46 38 56 36 36 14 29 356
290 246 248 242 249 240 239 263 261 242 219 219 227 234 199 204 183 174 181 174 175 172 171 160 156 169 167 170 177 209 146 160 143 155 174 170 149 150 66 92 79 36 2 45 59 8 47 19 13
223 248 255 223 219 233 235 221 232 299 254 209 246 252 192 174 183 174 175 175 185 170 174 167 168 166 174 168 171 164 164 162 155 169 204 165 160 161 125 121 18 44 35 80 4 34 82 56 32
195 239 260 292 290 318 112 222 238 250 257 299 300 297 315 165 188 166 176 186 183 180 179 167 174 171 170 167 167 164 160 166 163 221 130 217 172 143 142 173 131 28 337 54 4 83 17 40 61
279 227 261 282 276 273 281 261 240 215 221 231 246 239 218 212 185 162 177 193 177 182 181 177 170 171 172 165 167 166 177 161 162 137 165 154 63 128 199 175 90 13 321 341 288 69 60 69 354
260 309 279 227 256 268 274 258 283 148 176 310 343 313 221 211 156 165 181 187 174 183 176 176 174 171 172 164 170 168 175 171 145 162 203 157 140 253 158 186 151 15 308 208 278 174 122 247 9
236 243 247 342 297 297 290 267 58 187 303 5 330 326 20 335 144 168 182 178 172 185 175 174 174 171 172 170 169 165 169 170 167 177 187 178 181 193 191 209 220 45 251 207 217 8 256 284 320
284 287 296 295 283 339 323 293 322 291 286 289 298 354 89 92 268 188 166 172 176 179 179 178 176 174 174 170 168 168 169 173 177 176 177 166 177 187 194 196 240 241 262 180 225 250 3 307 310